Regional Weather Roundup
Issued by NWS

Home | Current Version | Previous Version | Graphics & Text | Print | Product List | Glossary On
Versions: 1 2 3 4 5 6 7 8 9 10 11 12 13 14 15 16 17 18 19 20 21 22 23 24 25 26 27 28 29 30 31 32 33 34 35 36 37 38 39 40 41 42 43 44 45 46 47 48 49 50
000
ASUS43 KOAX 281602
RWRNE

WEATHER ROUNDUP FOR NEBRASKA
NATIONAL WEATHER SERVICE OMAHA NE
1100 AM CDT THU APR 28 2016

NOTES: SATELLITE DATA IS BEING USED TO AUGMENT CLOUD COVER ABOVE
       12000 FEET.
       "FAIR" INDICATES FEW OR NO CLOUDS BELOW 12,000 FEET WITH NO
       SIGNIFICANT WEATHER AND/OR OBSTRUCTIONS TO VISIBILITY.

  * THESE STATIONS DO NOT REPORT WEATHER SUCH AS RAIN...SNOW OR FOG.

NEZ001>004-019>022-054>056-281700-
NEBRASKA PANHANDLE

CITY           SKY/WX    TMP DP  RH WIND       PRES   REMARKS
SCOTTSBLUFF    CLOUDY    39  27  62 VRB5      30.03R
ALLIANCE       CLOUDY    36  29  75 N12       30.01R WCI  28
CHADRON        CLOUDY    37  32  82 N10       30.04S WCI  30
KIMBALL        CLOUDY    38  29  72 N8        29.98S WCI  32
SIDNEY         CLOUDY    38  28  67 N15       30.00S WCI  29
$$

NEZ057>060-069>072-079>082-281700-
SOUTHWEST NEBRASKA

CITY           SKY/WX    TMP DP  RH WIND       PRES   REMARKS
NORTH PLATTE   PTSUNNY   43  33  68 N13       30.01R
IMPERIAL       MOSUNNY   43  32  65 N12       30.02R
LEXINGTON      PTSUNNY   46  38  74 N15       29.99S
MCCOOK         SUNNY     47  34  60 N10       30.01R
OGALLALA       MOSUNNY   42  29  59 N14G21    30.01F
$$

NEZ005>010-023>029-035>040-094-281700-
NORTH CENTRAL NEBRASKA

CITY           SKY/WX    TMP DP  RH WIND       PRES   REMARKS
VALENTINE      CLOUDY    39  34  82 N10       30.01R WCI  32
AINSWORTH      CLOUDY    39  37  91 NW10      30.00R WCI  32
BROKEN BOW     CLOUDY    40  37  89 N21G28    29.97S WCI  30
O`NEILL        CLOUDY    41  39  93 NW12      29.98R
ORD            CLOUDY    42  40  92 NW14      29.97R
$$

NEZ041-046>049-061>064-073>077-083>087-281700-
SOUTH CENTRAL NEBRASKA

CITY           SKY/WX    TMP DP  RH WIND       PRES   REMARKS
GRAND ISLAND   CLOUDY    45  40  82 NW16      29.97R
AURORA         CLOUDY    46  42  84 N21       29.96R
HASTINGS       CLOUDY    44  38  79 N17       29.97R
HEBRON         CLOUDY    47  41  78 NW14      29.96R
HOLDREGE       CLOUDY    44  37  74 N12G17    29.98S
KEARNEY *      CLOUDY    45  36  70 NW12G20   29.99R
YORK           CLOUDY    48  41  76 N13       29.94R
$$

NEZ011>018-030>034-042>045-281700-
NORTHEAST NEBRASKA

CITY           SKY/WX    TMP DP  RH WIND       PRES   REMARKS
NORFOLK        CLOUDY    45  39  79 NW17      29.93R
ALBION         CLOUDY    44  42  93 NW13      29.95R
BLAIR          CLOUDY    46  43  86 NW17      29.89R
COLUMBUS *     CLOUDY    46  36  66 NW14G22   29.94R
TEKAMAH        CLOUDY    46  43  89 NW15      29.91R
WAYNE          CLOUDY    44  40  87 N14       29.92S
$$

NEZ050>053-065>068-078-088>093-281700-
SOUTHEAST NEBRASKA

CITY           SKY/WX    TMP DP  RH WIND       PRES   REMARKS
LINCOLN        CLOUDY    51  41  68 NW13      29.94R
OMAHA EPPLEY   CLOUDY    48  43  82 NW17      29.88R
BEATRICE       CLOUDY    48  43  84 NW13      29.93R
FALLS CITY     CLOUDY    52  45  77 W13       29.90R
NEBRASKA CITY  CLOUDY    49  44  84 NW16      29.90R
PLATTSMOUTH    CLOUDY    47  43  86 W12       29.91R
$$

NEZ044-045-051>053-067-281700-
OMAHA AREA

CITY           SKY/WX    TMP DP  RH WIND       PRES   REMARKS
OMAHA EPPLEY   CLOUDY    48  43  82 NW17      29.88R
BLAIR          CLOUDY    46  43  86 NW17      29.89R
MILLARD        CLOUDY    48  42  79 NW10G18   29.90R
OFFUTT AFB     CLOUDY    48  44  84 NW13G18   29.89R
PLATTSMOUTH    CLOUDY    47  43  86 W12       29.91R
WAHOO          CLOUDY    48  44  85 N18       29.91R
$$




USA.gov is the U.S. government's official web portal to all federal, state and local government web resources and services.